contact:dominique.lefevre@mio.osupytheas.fr, maurice.libes@osupytheas.fr, didier.mallarino@osupytheas.fr
Project:EMSO http://www.emso-fr.org/EMSO-France
Depth: 2436.0 m
Title:EMSO Ligure Ouest : Data MII capteur AQUADOPP
Date,Latitude,Longitude,X_East,Y_North,Z_Up,Amplitude_X,Amplitude_Y,Amplitude_Z,Batterie,SoundSpeed,Heading,Pitch,Roll,Pressure,TIS,Speed,Direction
, degrees North, degrees East, m.s-1, m.s-1,m.s-1, 1, 1, 1, Volt, m.s-1, degree, degree, degree, dbar, degree_C, m.s-1, degree
2022-02-16T00:04:03,42.805,6.029,0.007,0.0,-0.012,104.0,107.0,102.0,13.3,1505.2,329.5,-0.7,1.8,2470.631,13.28,0.007,90.0
2022-02-16T00:07:03,42.805,6.029,0.019,-0.004,-0.006,105.0,106.0,102.0,13.3,1505.2,326.1,-0.8,1.8,2470.609,13.28,0.019,101.9
2022-02-16T00:10:03,42.805,6.029,0.034,-0.009,0.027,104.0,106.0,103.0,13.4,1505.2,329.7,-0.7,1.8,2470.572,13.28,0.035,104.8
2022-02-16T00:13:03,42.805,6.029,0.017,0.006,0.011,104.0,106.0,103.0,13.4,1505.2,329.6,-0.8,1.8,2470.534,13.28,0.018,70.6
2022-02-16T00:16:03,42.805,6.029,0.013,0.01,-0.034,105.0,107.0,102.0,13.4,1505.2,325.1,-0.8,1.8,2470.543,13.28,0.016,52.4
2022-02-16T00:19:03,42.805,6.029,0.054,0.005,0.014,105.0,107.0,102.0,13.4,1505.2,325.4,-0.8,1.8,2470.491,13.28,0.054,84.7
2022-02-16T00:22:03,42.805,6.029,0.025,0.012,0.009,105.0,106.0,102.0,13.4,1505.2,328.5,-0.7,1.8,2470.494,13.28,0.027,64.4
2022-02-16T00:25:03,42.805,6.029,0.018,0.013,-0.017,105.0,107.0,102.0,13.3,1505.2,327.1,-0.8,1.8,2470.465,13.28,0.022,54.2
2022-02-16T00:28:03,42.805,6.029,0.022,0.004,-0.02,106.0,106.0,102.0,13.4,1505.2,327.7,-0.8,1.8,2470.418,13.28,0.022,79.7
2022-02-16T00:31:03,42.805,6.029,0.036,0.001,0.0,105.0,106.0,103.0,13.4,1505.2,327.5,-0.8,1.8,2470.395,13.28,0.036,88.4
2022-02-16T00:34:03,42.805,6.029,0.031,0.023,0.003,105.0,106.0,103.0,13.4,1505.2,326.5,-0.8,1.8,2470.413,13.28,0.038,53.4
2022-02-16T00:37:03,42.805,6.029,0.011,-0.005,-0.023,104.0,106.0,103.0,13.4,1505.2,325.2,-0.7,1.8,2470.406,13.28,0.012,114.4
2022-02-16T00:40:03,42.805,6.029,0.037,0.024,0.037,105.0,108.0,102.0,13.4,1505.2,328.5,-0.7,1.8,2470.343,13.28,0.044,57.0
2022-02-16T00:43:03,42.805,6.029,0.031,-0.006,-0.019,104.0,107.0,104.0,13.4,1505.2,326.2,-0.8,1.8,2470.346,13.28,0.031,101.0
2022-02-16T00:46:03,42.805,6.029,0.048,-0.001,0.044,104.0,105.0,103.0,13.4,1505.2,326.5,-0.8,1.8,2470.286,13.28,0.048,91.2
2022-02-16T00:49:03,42.805,6.029,0.034,-0.025,0.0,104.0,107.0,103.0,13.4,1505.2,325.2,-0.8,1.8,2470.291,13.28,0.042,126.3
2022-02-16T00:52:03,42.805,6.029,0.049,-0.003,0.005,105.0,105.0,103.0,13.4,1505.2,326.1,-0.7,1.9,2470.27,13.28,0.049,93.5
2022-02-16T00:55:03,42.805,6.029,0.04,0.013,-0.019,104.0,106.0,103.0,13.3,1505.2,326.3,-0.7,1.8,2470.286,13.28,0.042,72.0
2022-02-16T00:58:03,42.805,6.029,0.042,-0.007,0.007,104.0,106.0,104.0,13.4,1505.2,328.9,-0.8,1.8,2470.28,13.28,0.042,99.5
2022-02-16T01:04:03,42.805,6.029,0.021,-0.01,-0.017,107.0,107.0,105.0,13.4,1505.2,332.5,-0.7,1.8,2470.444,13.28,0.023,115.5
2022-02-16T01:07:03,42.805,6.029,0.019,0.017,0.02,105.0,105.0,103.0,13.4,1505.2,328.8,-0.8,1.8,2470.404,13.28,0.025,48.2
2022-02-16T01:10:03,42.805,6.029,0.03,0.028,-0.017,105.0,106.0,102.0,13.4,1505.2,330.7,-0.8,1.8,2470.575,13.28,0.041,47.0
2022-02-16T01:13:03,42.805,6.029,0.037,-0.001,-0.016,105.0,105.0,102.0,13.4,1505.2,326.0,-0.7,1.8,2470.445,13.28,0.037,91.5
2022-02-16T01:16:03,42.805,6.029,0.037,0.009,-0.004,104.0,105.0,102.0,13.4,1505.2,325.8,-0.8,1.8,2470.183,13.28,0.038,76.3
2022-02-16T01:19:03,42.805,6.029,0.04,0.009,0.002,104.0,105.0,102.0,13.3,1505.2,323.2,-0.8,1.8,2470.235,13.28,0.041,77.3
2022-02-16T01:22:03,42.805,6.029,0.043,-0.007,0.001,105.0,106.0,103.0,13.4,1505.2,325.5,-0.8,1.9,2470.425,13.28,0.043,99.2
2022-02-16T01:25:03,42.805,6.029,0.056,0.006,0.009,105.0,106.0,102.0,13.4,1505.2,323.6,-0.8,1.8,2470.56,13.28,0.056,83.9
2022-02-16T01:28:03,42.805,6.029,0.034,0.003,0.01,104.0,105.0,102.0,13.3,1505.2,327.4,-0.7,1.8,2470.799,13.28,0.034,85.0
2022-02-16T01:31:03,42.805,6.029,0.026,-0.01,-0.01,104.0,108.0,102.0,13.4,1505.2,331.7,-0.8,1.8,2470.942,13.28,0.027,111.0
2022-02-16T01:34:03,42.805,6.029,0.048,-0.001,-0.004,104.0,106.0,103.0,13.4,1505.2,325.9,-0.7,1.8,2471.172,13.28,0.048,91.2
2022-02-16T01:37:03,42.805,6.029,0.025,0.002,-0.012,104.0,105.0,103.0,13.4,1505.2,330.7,-0.7,1.8,2471.227,13.28,0.025,85.4
2022-02-16T01:40:03,42.805,6.029,0.053,0.0,0.011,103.0,107.0,103.0,13.4,1505.2,327.5,-0.7,1.8,2471.364,13.28,0.053,90.0
2022-02-16T01:43:03,42.805,6.029,0.004,-0.018,0.007,105.0,104.0,103.0,13.3,1505.2,327.7,-0.8,1.8,2471.552,13.28,0.018,167.5
2022-02-16T01:46:03,42.805,6.029,0.05,-0.014,-0.008,104.0,107.0,103.0,13.4,1505.2,327.6,-0.8,1.8,2471.806,13.28,0.051,105.6
2022-02-16T01:49:03,42.805,6.029,0.053,0.013,0.0,105.0,107.0,103.0,13.4,1505.2,325.3,-0.8,1.8,2472.047,13.28,0.054,76.2
2022-02-16T01:52:03,42.805,6.029,0.018,-0.006,0.014,105.0,106.0,103.0,13.3,1505.2,327.4,-0.7,1.8,2472.337,13.28,0.018,108.4
2022-02-16T01:55:03,42.805,6.029,0.033,0.003,0.004,104.0,106.0,102.0,13.4,1505.2,323.7,-0.7,1.8,2472.558,13.28,0.033,84.8
2022-02-16T01:58:03,42.805,6.029,0.042,0.01,-0.008,104.0,107.0,102.0,13.4,1505.2,329.6,-0.8,1.8,2471.7,13.28,0.043,76.6
2022-02-16T02:04:03,42.805,6.029,0.049,0.0,0.013,105.0,106.0,102.0,13.4,1505.2,325.2,-0.8,1.8,2471.092,13.28,0.049,90.0
2022-02-16T02:07:03,42.805,6.029,0.039,-0.001,-0.002,104.0,105.0,102.0,13.4,1505.2,327.5,-0.8,1.8,2470.976,13.28,0.039,91.5
2022-02-16T02:10:03,42.805,6.029,0.048,0.014,0.045,105.0,106.0,103.0,13.4,1505.2,323.2,-0.8,1.8,2470.927,13.28,0.05,73.7
2022-02-16T02:13:03,42.805,6.029,0.043,-0.005,0.005,105.0,106.0,102.0,13.4,1505.2,331.0,-0.8,1.8,2470.675,13.28,0.043,96.6
2022-02-16T02:16:03,42.805,6.029,0.058,0.007,0.005,104.0,106.0,103.0,13.3,1505.2,323.7,-0.8,1.8,2470.509,13.28,0.058,83.1
2022-02-16T02:19:03,42.805,6.029,0.049,0.002,0.009,105.0,106.0,103.0,13.4,1505.2,325.8,-0.8,1.8,2470.417,13.28,0.049,87.7
2022-02-16T02:22:03,42.805,6.029,0.034,0.001,0.0,105.0,105.0,103.0,13.3,1505.2,325.0,-0.8,1.8,2470.218,13.28,0.034,88.3
2022-02-16T02:25:03,42.805,6.029,0.047,0.007,0.016,106.0,104.0,103.0,13.4,1505.2,329.0,-0.8,1.8,2470.192,13.28,0.047,81.5
2022-02-16T02:28:03,42.805,6.029,0.035,0.006,-0.031,106.0,105.0,104.0,13.4,1505.2,327.3,-0.8,1.8,2470.201,13.28,0.035,80.3
2022-02-16T02:31:03,42.805,6.029,0.061,0.003,-0.002,104.0,105.0,103.0,13.3,1505.2,328.2,-0.8,1.8,2470.079,13.28,0.061,87.2
2022-02-16T02:34:03,42.805,6.029,0.037,0.008,-0.023,104.0,104.0,103.0,13.3,1505.2,326.7,-0.8,1.8,2470.062,13.28,0.037,77.8
2022-02-16T02:37:03,42.805,6.029,0.024,0.003,0.002,105.0,105.0,103.0,13.4,1505.2,327.0,-0.8,1.9,2470.118,13.28,0.024,82.9
2022-02-16T02:40:03,42.805,6.029,0.033,-0.005,-0.004,105.0,104.0,103.0,13.4,1505.2,325.3,-0.8,1.8,2470.097,13.28,0.033,98.6
2022-02-16T02:43:03,42.805,6.029,0.043,-0.012,-0.01,106.0,106.0,102.0,13.3,1505.2,327.5,-0.8,1.8,2470.097,13.28,0.044,105.6
2022-02-16T02:46:03,42.805,6.029,0.026,-0.015,-0.013,104.0,104.0,103.0,13.4,1505.2,328.7,-0.8,1.8,2470.104,13.28,0.03,120.0
2022-02-16T02:49:03,42.805,6.029,0.056,0.01,0.01,104.0,106.0,103.0,13.4,1505.2,324.7,-0.7,1.8,2470.141,13.28,0.056,79.9
2022-02-16T02:52:03,42.805,6.029,0.024,-0.004,0.016,106.0,103.0,103.0,13.4,1505.2,323.8,-0.8,1.8,2470.114,13.28,0.024,99.5
2022-02-16T02:55:03,42.805,6.029,0.048,-0.015,-0.007,106.0,105.0,102.0,13.4,1505.2,327.9,-0.8,1.8,2470.156,13.28,0.05,107.4
2022-02-16T02:58:03,42.805,6.029,0.037,-0.012,-0.001,104.0,104.0,103.0,13.4,1505.2,325.5,-0.8,1.8,2470.212,13.28,0.038,108.0
2022-02-16T03:04:03,42.805,6.029,0.037,-0.02,-0.002,105.0,105.0,102.0,13.4,1505.2,326.6,-0.7,1.8,2470.249,13.28,0.042,118.4
2022-02-16T03:07:03,42.805,6.029,0.049,0.008,-0.005,104.0,106.0,102.0,13.4,1505.2,325.8,-0.7,1.8,2470.261,13.28,0.049,80.7
2022-02-16T03:10:03,42.805,6.029,0.064,-0.014,0.02,104.0,105.0,102.0,13.4,1505.2,324.4,-0.8,1.8,2470.28,13.28,0.065,102.3
2022-02-16T03:13:03,42.805,6.029,0.05,-0.017,-0.013,105.0,105.0,102.0,13.4,1505.2,328.9,-0.8,1.8,2470.305,13.28,0.052,108.8
2022-02-16T03:16:03,42.805,6.029,0.046,-0.003,-0.029,104.0,105.0,102.0,13.3,1505.2,327.9,-0.7,1.8,2470.284,13.28,0.046,93.7
2022-02-16T03:19:03,42.805,6.029,0.043,-0.008,-0.021,106.0,105.0,102.0,13.4,1505.2,328.5,-0.7,1.8,2470.323,13.28,0.043,100.5
2022-02-16T03:22:03,42.805,6.029,0.038,0.003,0.04,105.0,106.0,102.0,13.3,1505.2,325.7,-0.7,1.8,2470.324,13.28,0.038,85.5
2022-02-16T03:25:03,42.805,6.029,0.045,-0.028,0.019,104.0,105.0,102.0,13.4,1505.2,329.3,-0.7,1.8,2470.334,13.28,0.053,121.9
2022-02-16T03:28:03,42.805,6.029,0.031,-0.008,-0.031,105.0,104.0,104.0,13.4,1505.2,326.3,-0.7,1.8,2470.363,13.28,0.032,104.5
2022-02-16T03:31:03,42.805,6.029,0.061,0.01,-0.001,104.0,106.0,103.0,13.4,1505.2,328.6,-0.7,1.8,2470.359,13.28,0.061,80.7
2022-02-16T03:34:03,42.805,6.029,0.037,-0.011,0.004,105.0,105.0,103.0,13.3,1505.2,326.5,-0.8,1.8,2470.37,13.28,0.038,106.6
2022-02-16T03:37:03,42.805,6.029,0.048,0.012,-0.014,105.0,105.0,101.0,13.3,1505.2,323.0,-0.7,1.8,2470.398,13.28,0.049,76.0
2022-02-16T03:40:03,42.805,6.029,0.056,-0.015,-0.015,105.0,105.0,102.0,13.4,1505.2,328.6,-0.8,1.8,2470.39,13.28,0.057,105.0
2022-02-16T03:43:03,42.805,6.029,0.017,-0.026,-0.021,104.0,105.0,103.0,13.4,1505.2,325.1,-0.7,1.8,2470.375,13.28,0.031,146.8
2022-02-16T03:46:03,42.805,6.029,0.048,-0.004,-0.007,105.0,106.0,102.0,13.4,1505.2,326.3,-0.7,1.8,2470.382,13.28,0.048,94.8
2022-02-16T03:49:03,42.805,6.029,0.039,-0.01,0.0,105.0,106.0,101.0,13.4,1505.2,329.1,-0.7,1.8,2470.393,13.28,0.04,104.4
2022-02-16T03:52:03,42.805,6.029,0.061,-0.008,0.007,105.0,105.0,103.0,13.3,1505.2,324.6,-0.7,1.8,2470.431,13.28,0.061,97.5
2022-02-16T03:55:03,42.805,6.029,0.03,-0.009,0.01,104.0,106.0,102.0,13.4,1505.2,326.6,-0.7,1.8,2470.416,13.28,0.031,106.7
2022-02-16T03:58:03,42.805,6.029,0.03,-0.007,0.01,104.0,105.0,102.0,13.4,1505.2,323.9,-0.8,1.8,2470.504,13.28,0.03,103.1
2022-02-16T04:04:03,42.805,6.029,0.044,0.003,-0.025,105.0,103.0,103.0,13.4,1505.2,327.3,-0.8,1.8,2470.503,13.28,0.044,86.1
2022-02-16T04:07:03,42.805,6.029,0.054,-0.013,0.007,105.0,105.0,103.0,13.4,1505.2,330.0,-0.8,1.8,2470.686,13.28,0.055,103.5
2022-02-16T04:10:03,42.805,6.029,0.041,0.003,0.014,105.0,105.0,102.0,13.4,1505.2,323.4,-0.8,1.8,2470.58,13.28,0.041,85.8
2022-02-16T04:13:03,42.805,6.029,0.044,0.001,-0.016,104.0,105.0,103.0,13.4,1505.2,326.1,-0.7,1.8,2470.528,13.28,0.044,88.7
2022-02-16T04:16:03,42.805,6.029,0.053,-0.009,-0.003,104.0,105.0,102.0,13.4,1505.2,323.8,-0.7,1.8,2470.627,13.28,0.053,99.6
2022-02-16T04:19:03,42.805,6.029,0.051,0.001,0.029,104.0,106.0,102.0,13.3,1505.2,323.7,-0.7,1.8,2470.761,13.28,0.051,88.9
2022-02-16T04:22:03,42.805,6.029,0.061,-0.002,0.0,105.0,106.0,103.0,13.4,1505.2,323.6,-0.7,1.8,2470.799,13.28,0.061,91.9
2022-02-16T04:25:03,42.805,6.029,0.042,-0.005,0.013,105.0,105.0,103.0,13.4,1505.2,331.5,-0.7,1.8,2470.848,13.28,0.042,96.8
2022-02-16T04:28:03,42.805,6.029,0.055,-0.018,0.011,105.0,105.0,103.0,13.3,1505.2,330.0,-0.8,1.8,2470.837,13.28,0.057,108.1
2022-02-16T04:31:03,42.805,6.029,0.065,-0.012,0.011,104.0,105.0,103.0,13.3,1505.2,326.5,-0.8,1.8,2470.908,13.28,0.066,100.5
2022-02-16T04:34:03,42.805,6.029,0.038,-0.015,-0.009,104.0,104.0,103.0,13.4,1505.2,324.9,-0.8,1.8,2470.904,13.28,0.04,111.5
2022-02-16T04:37:03,42.805,6.029,0.039,-0.023,-0.014,104.0,106.0,103.0,13.4,1505.2,329.6,-0.7,1.8,2470.942,13.28,0.045,120.5
2022-02-16T04:40:03,42.805,6.029,0.052,-0.024,0.003,105.0,105.0,103.0,13.4,1505.2,331.8,-0.8,1.8,2471.229,13.28,0.057,114.8
2022-02-16T04:43:03,42.805,6.029,0.06,-0.015,-0.018,104.0,105.0,103.0,13.3,1505.2,324.9,-0.7,1.8,2471.27,13.28,0.061,104.0
2022-02-16T04:46:03,42.805,6.029,0.04,-0.035,-0.019,105.0,104.0,103.0,13.3,1505.2,329.9,-0.8,1.8,2471.283,13.28,0.053,131.2
2022-02-16T04:49:03,42.805,6.029,0.049,0.0,0.025,103.0,106.0,102.0,13.4,1505.2,329.1,-0.8,1.8,2471.252,13.28,0.049,90.0
2022-02-16T04:52:03,42.805,6.029,0.071,-0.025,-0.01,104.0,105.0,102.0,13.3,1505.2,325.5,-0.7,1.8,2471.382,13.28,0.075,109.4
2022-02-16T04:55:03,42.805,6.029,0.051,-0.024,-0.009,104.0,105.0,102.0,13.3,1505.2,326.3,-0.7,1.8,2471.477,13.28,0.056,115.2
2022-02-16T04:58:03,42.805,6.029,0.047,-0.015,0.002,105.0,105.0,101.0,13.3,1505.2,329.6,-0.8,1.8,2471.535,13.28,0.049,107.7
2022-02-16T05:04:03,42.805,6.029,0.06,-0.003,0.009,105.0,106.0,102.0,13.4,1505.2,325.9,-0.7,1.8,2471.901,13.28,0.06,92.9
2022-02-16T05:07:03,42.805,6.029,0.026,-0.01,-0.02,104.0,105.0,103.0,13.4,1505.2,326.2,-0.8,1.8,2472.161,13.28,0.027,111.0
2022-02-16T05:10:03,42.805,6.029,0.04,-0.014,0.021,104.0,106.0,102.0,13.3,1505.2,323.1,-0.7,1.8,2472.418,13.28,0.042,109.3
2022-02-16T05:13:03,42.805,6.029,0.026,-0.015,0.0,105.0,106.0,102.0,13.3,1505.2,327.7,-0.7,1.8,2472.548,13.28,0.03,120.0
2022-02-16T05:16:03,42.805,6.029,0.041,-0.015,0.021,104.0,104.0,103.0,13.4,1505.2,326.1,-0.8,1.8,2472.13,13.28,0.043,110.1
2022-02-16T05:19:03,42.805,6.029,0.064,-0.009,-0.003,105.0,105.0,103.0,13.4,1505.2,324.7,-0.7,1.8,2472.429,13.28,0.064,98.0
2022-02-16T05:22:03,42.805,6.029,0.051,-0.007,0.001,105.0,104.0,102.0,13.3,1505.2,327.6,-0.8,1.8,2470.669,13.28,0.051,97.8
2022-02-16T05:25:03,42.805,6.029,0.047,0.006,0.013,104.0,104.0,102.0,13.4,1505.2,323.4,-0.7,1.8,2470.156,13.28,0.047,82.7
2022-02-16T05:28:03,42.805,6.029,0.047,0.003,0.01,105.0,105.0,102.0,13.4,1505.2,329.7,-0.8,1.8,2470.174,13.28,0.047,86.4
2022-02-16T05:31:03,42.805,6.029,0.049,-0.028,-0.018,104.0,104.0,102.0,13.3,1505.2,331.3,-0.8,1.8,2470.264,13.28,0.056,119.7
2022-02-16T05:34:03,42.805,6.029,0.036,-0.023,-0.007,104.0,105.0,102.0,13.3,1505.2,324.1,-0.8,1.8,2470.329,13.28,0.042,122.6
2022-02-16T05:37:03,42.805,6.029,0.058,-0.005,-0.006,105.0,104.0,102.0,13.3,1505.2,326.3,-0.7,1.8,2470.34,13.28,0.058,94.9
2022-02-16T05:40:03,42.805,6.029,0.041,0.0,-0.016,105.0,105.0,102.0,13.4,1505.2,326.4,-0.8,1.8,2470.365,13.28,0.041,90.0
2022-02-16T05:43:03,42.805,6.029,0.046,0.008,0.009,104.0,106.0,102.0,13.4,1505.2,326.8,-0.7,1.8,2470.43,13.28,0.046,80.1
2022-02-16T05:46:03,42.805,6.029,0.067,-0.004,0.01,104.0,105.0,103.0,13.4,1505.2,326.1,-0.8,1.8,2470.473,13.28,0.067,93.4
2022-02-16T05:49:03,42.805,6.029,0.066,-0.005,-0.005,104.0,105.0,103.0,13.3,1505.2,326.3,-0.8,1.8,2470.479,13.28,0.066,94.3
2022-02-16T05:52:03,42.805,6.029,0.054,-0.02,-0.007,105.0,103.0,102.0,13.4,1505.2,329.4,-0.7,1.8,2470.516,13.28,0.057,110.3
2022-02-16T05:55:03,42.805,6.029,0.052,-0.016,0.013,106.0,104.0,102.0,13.4,1505.2,324.6,-0.8,1.8,2470.523,13.28,0.054,107.1
2022-02-16T05:58:03,42.805,6.029,0.034,-0.002,-0.014,105.0,106.0,102.0,13.3,1505.2,323.8,-0.7,1.8,2470.607,13.28,0.034,93.4
2022-02-16T06:04:03,42.805,6.029,0.038,-0.01,-0.019,105.0,105.0,102.0,13.3,1505.2,326.6,-0.7,1.8,2470.627,13.28,0.039,104.7
2022-02-16T06:07:03,42.805,6.029,0.042,-0.012,-0.002,105.0,105.0,102.0,13.4,1505.2,331.3,-0.7,1.8,2470.605,13.28,0.043,105.9
2022-02-16T06:10:03,42.805,6.029,0.055,-0.018,-0.035,104.0,105.0,103.0,13.3,1505.2,326.1,-0.8,1.8,2470.618,13.28,0.057,108.1
2022-02-16T06:13:03,42.805,6.029,0.053,-0.007,-0.004,105.0,105.0,102.0,13.4,1505.2,324.4,-0.8,1.8,2470.688,13.28,0.053,97.5
2022-02-16T06:16:03,42.805,6.029,0.042,-0.015,0.001,103.0,105.0,103.0,13.4,1505.2,328.5,-0.7,1.8,2470.688,13.28,0.044,109.6
2022-02-16T06:19:03,42.805,6.029,0.039,-0.017,-0.007,105.0,104.0,103.0,13.4,1505.2,329.5,-0.7,1.8,2470.755,13.28,0.042,113.5
2022-02-16T06:22:03,42.805,6.029,0.052,0.0,-0.013,105.0,104.0,103.0,13.4,1505.2,325.5,-0.8,1.8,2470.77,13.28,0.052,90.0
2022-02-16T06:25:03,42.805,6.029,0.025,0.008,-0.005,105.0,104.0,103.0,13.4,1505.2,323.4,-0.7,1.8,2470.781,13.28,0.026,72.3
2022-02-16T06:28:03,42.805,6.029,0.058,0.003,0.035,105.0,104.0,102.0,13.3,1505.2,331.1,-0.8,1.8,2470.795,13.28,0.058,87.0
2022-02-16T06:31:03,42.805,6.029,0.044,-0.01,0.011,106.0,105.0,103.0,13.3,1505.2,327.0,-0.7,1.8,2470.807,13.28,0.045,102.8
2022-02-16T06:34:03,42.805,6.029,0.048,-0.023,-0.005,105.0,105.0,102.0,13.4,1505.2,330.4,-0.7,1.8,2470.832,13.28,0.053,115.6
2022-02-16T06:37:03,42.805,6.029,0.035,-0.008,-0.037,105.0,105.0,103.0,13.4,1505.2,326.8,-0.8,1.8,2470.844,13.28,0.035,102.9
2022-02-16T06:40:03,42.805,6.029,0.045,-0.005,-0.01,104.0,105.0,102.0,13.4,1505.2,330.7,-0.8,1.8,2470.853,13.28,0.045,96.3
2022-02-16T06:43:03,42.805,6.029,0.038,-0.011,-0.01,104.0,104.0,102.0,13.4,1505.2,330.0,-0.8,1.8,2470.859,13.28,0.039,106.1
2022-02-16T06:46:03,42.805,6.029,0.044,0.005,0.021,104.0,104.0,102.0,13.4,1505.2,323.4,-0.8,1.8,2470.887,13.28,0.044,83.5
2022-02-16T06:49:03,42.805,6.029,0.039,-0.01,-0.015,105.0,105.0,102.0,13.3,1505.2,332.5,-0.8,1.9,2470.86,13.28,0.04,104.4
2022-02-16T06:52:03,42.805,6.029,0.047,-0.017,0.004,104.0,104.0,103.0,13.3,1505.2,329.2,-0.7,1.8,2470.878,13.28,0.049,109.9
2022-02-16T06:55:03,42.805,6.029,0.055,0.005,-0.007,104.0,107.0,103.0,13.3,1505.2,327.5,-0.8,1.8,2470.892,13.28,0.055,84.8
2022-02-16T06:58:03,42.805,6.029,0.052,-0.021,-0.012,105.0,104.0,103.0,13.4,1505.2,325.1,-0.8,1.8,2470.907,13.28,0.056,112.0
2022-02-16T07:04:03,42.805,6.029,0.047,-0.007,0.006,105.0,105.0,103.0,13.4,1505.2,325.2,-0.7,1.8,2470.913,13.28,0.047,98.5
2022-02-16T07:07:03,42.805,6.029,0.061,-0.013,-0.014,105.0,105.0,103.0,13.4,1505.2,324.4,-0.7,1.8,2470.893,13.28,0.062,102.0
2022-02-16T07:10:03,42.805,6.029,0.02,-0.004,0.0,105.0,105.0,103.0,13.4,1505.2,324.9,-0.7,1.8,2470.922,13.28,0.02,101.3
2022-02-16T07:13:03,42.805,6.029,0.024,-0.015,0.008,106.0,105.0,102.0,13.3,1505.2,332.1,-0.7,1.8,2470.946,13.28,0.028,122.0
2022-02-16T07:16:03,42.805,6.029,0.057,-0.02,-0.01,105.0,103.0,102.0,13.4,1505.2,323.0,-0.7,1.8,2470.921,13.28,0.06,109.3
2022-02-16T07:19:03,42.805,6.029,0.034,-0.032,0.006,103.0,104.0,104.0,13.4,1505.2,326.1,-0.8,1.8,2470.949,13.28,0.046,133.3
2022-02-16T07:22:03,42.805,6.029,0.049,-0.011,-0.004,104.0,105.0,102.0,13.3,1505.2,324.9,-0.8,1.8,2470.938,13.28,0.05,102.7
2022-02-16T07:25:03,42.805,6.029,0.024,0.011,-0.001,105.0,104.0,102.0,13.4,1505.2,329.0,-0.8,1.8,2470.908,13.28,0.026,65.4
2022-02-16T07:28:03,42.805,6.029,0.037,-0.026,-0.02,105.0,104.0,102.0,13.4,1505.2,327.3,-0.8,1.8,2470.912,13.28,0.045,125.1
2022-02-16T07:31:03,42.805,6.029,0.032,0.0,-0.026,104.0,104.0,103.0,13.3,1505.2,323.8,-0.8,1.8,2470.912,13.28,0.032,90.0
2022-02-16T07:34:03,42.805,6.029,0.054,-0.009,-0.024,105.0,105.0,102.0,13.4,1505.2,329.1,-0.7,1.8,2470.91,13.28,0.054,99.5
2022-02-16T07:37:03,42.805,6.029,0.051,0.003,0.009,105.0,104.0,103.0,13.4,1505.2,328.9,-0.8,1.8,2470.916,13.28,0.051,86.6
2022-02-16T07:40:03,42.805,6.029,0.046,-0.023,0.004,105.0,104.0,102.0,13.4,1505.2,329.6,-0.8,1.8,2470.946,13.28,0.051,116.6
2022-02-16T07:43:03,42.805,6.029,0.023,-0.015,0.012,105.0,104.0,102.0,13.3,1505.2,327.3,-0.8,1.8,2470.907,13.28,0.027,123.1
2022-02-16T07:46:03,42.805,6.029,0.045,-0.032,0.006,104.0,104.0,102.0,13.4,1505.2,325.9,-0.7,1.8,2470.925,13.28,0.055,125.4
2022-02-16T07:49:03,42.805,6.029,0.051,-0.01,-0.001,103.0,105.0,103.0,13.4,1505.2,323.4,-0.8,1.8,2470.936,13.28,0.051,101.1
2022-02-16T07:52:03,42.805,6.029,0.051,-0.026,-0.015,105.0,104.0,103.0,13.4,1505.2,331.8,-0.7,1.8,2470.929,13.28,0.057,117.0
2022-02-16T07:55:03,42.805,6.029,0.02,-0.002,-0.011,104.0,104.0,103.0,13.4,1505.2,328.4,-0.8,1.9,2470.896,13.28,0.02,95.7
2022-02-16T07:58:03,42.805,6.029,0.049,-0.014,0.004,105.0,104.0,103.0,13.4,1505.2,326.2,-0.7,1.8,2470.972,13.28,0.05,105.9
2022-02-16T08:04:03,42.805,6.029,0.038,0.004,-0.01,105.0,104.0,102.0,13.4,1505.2,324.2,-0.7,1.8,2470.993,13.28,0.038,84.0
2022-02-16T08:07:03,42.805,6.029,0.035,-0.001,-0.016,104.0,106.0,103.0,13.3,1505.2,331.1,-0.8,1.8,2470.893,13.28,0.035,91.6
2022-02-16T08:10:03,42.805,6.029,0.037,-0.016,0.004,104.0,106.0,102.0,13.4,1505.2,326.5,-0.8,1.8,2470.915,13.28,0.04,113.4
2022-02-16T08:13:03,42.805,6.029,0.027,-0.016,-0.006,105.0,104.0,102.0,13.4,1505.2,326.6,-0.8,1.9,2470.863,13.28,0.031,120.7
2022-02-16T08:16:03,42.805,6.029,0.041,-0.006,-0.051,103.0,104.0,103.0,13.4,1505.2,323.8,-0.7,1.8,2470.852,13.28,0.041,98.3
2022-02-16T08:19:03,42.805,6.029,0.032,-0.002,0.003,104.0,105.0,103.0,13.4,1505.2,331.0,-0.8,1.8,2470.896,13.28,0.032,93.6
2022-02-16T08:22:03,42.805,6.029,0.025,-0.019,-0.025,105.0,103.0,102.0,13.4,1505.2,327.6,-0.7,1.8,2470.877,13.28,0.031,127.2
2022-02-16T08:25:03,42.805,6.029,0.02,-0.01,-0.023,104.0,105.0,102.0,13.4,1505.2,329.7,-0.8,1.8,2470.923,13.28,0.022,116.6
2022-02-16T08:28:03,42.805,6.029,0.026,0.006,-0.025,104.0,104.0,102.0,13.3,1505.2,324.8,-0.8,1.8,2470.882,13.28,0.026,77.0
2022-02-16T08:31:03,42.805,6.029,0.035,-0.026,-0.007,104.0,104.0,102.0,13.3,1505.2,325.4,-0.8,1.8,2470.842,13.28,0.043,126.6
2022-02-16T08:34:03,42.805,6.029,0.039,-0.017,-0.026,103.0,103.0,102.0,13.4,1505.2,325.0,-0.8,1.8,2470.868,13.28,0.042,113.5
2022-02-16T08:37:03,42.805,6.029,0.051,-0.016,0.011,104.0,104.0,102.0,13.4,1505.2,329.2,-0.8,1.8,2470.883,13.28,0.053,107.4
2022-02-16T08:40:03,42.805,6.029,0.032,-0.028,0.004,104.0,104.0,102.0,13.4,1505.2,326.4,-0.7,1.8,2470.88,13.28,0.042,131.2
2022-02-16T08:43:03,42.805,6.029,0.027,-0.003,0.016,103.0,104.0,103.0,13.3,1505.2,328.8,-0.7,1.8,2470.865,13.28,0.027,96.3
2022-02-16T08:46:03,42.805,6.029,0.044,0.007,-0.005,103.0,103.0,102.0,13.4,1505.2,324.7,-0.7,1.8,2470.895,13.28,0.044,81.0
2022-02-16T08:49:03,42.805,6.029,0.056,-0.043,-0.029,103.0,103.0,102.0,13.4,1505.2,326.2,-0.7,1.8,2470.852,13.28,0.07,127.5
2022-02-16T08:52:03,42.805,6.029,0.036,-0.023,0.0,107.0,104.0,102.0,13.4,1505.2,326.6,-0.8,1.8,2470.827,13.28,0.042,122.6
2022-02-16T08:55:03,42.805,6.029,0.04,-0.025,-0.004,104.0,103.0,103.0,13.4,1505.2,324.7,-0.8,1.8,2470.852,13.28,0.047,122.0
2022-02-16T08:58:03,42.805,6.029,0.037,-0.038,-0.026,103.0,104.0,101.0,13.4,1505.2,331.6,-0.8,1.9,2470.838,13.28,0.053,135.8
2022-02-16T09:04:03,42.805,6.029,0.049,-0.019,-0.012,105.0,103.0,102.0,13.3,1505.2,327.6,-0.8,1.8,2470.89,13.28,0.052,111.2
2022-02-16T09:07:03,42.805,6.029,0.031,-0.005,0.002,104.0,105.0,102.0,13.4,1505.2,324.1,-0.7,1.8,2470.876,13.28,0.031,99.2
2022-02-16T09:10:03,42.805,6.029,0.056,-0.022,-0.024,105.0,103.0,102.0,13.4,1505.2,329.3,-0.8,1.8,2470.865,13.28,0.06,111.4
2022-02-16T09:13:03,42.805,6.029,0.06,-0.014,-0.015,103.0,104.0,101.0,13.3,1505.2,325.4,-0.8,1.8,2470.882,13.28,0.061,103.1
2022-02-16T09:16:03,42.805,6.029,0.049,-0.012,-0.013,104.0,103.0,102.0,13.4,1505.2,324.8,-0.8,1.8,2470.813,13.28,0.05,103.8
2022-02-16T09:19:03,42.805,6.029,0.064,-0.002,-0.021,105.0,104.0,102.0,13.4,1505.2,323.7,-0.7,1.8,2470.848,13.28,0.064,91.8
2022-02-16T09:22:03,42.805,6.029,0.042,-0.024,-0.011,105.0,104.0,101.0,13.3,1505.2,326.4,-0.7,1.8,2470.839,13.28,0.048,119.7
2022-02-16T09:25:03,42.805,6.029,0.035,-0.015,-0.009,105.0,103.0,101.0,13.4,1505.2,324.1,-0.8,1.8,2470.881,13.28,0.038,113.2
2022-02-16T09:28:03,42.805,6.029,0.04,-0.029,-0.006,104.0,103.0,102.0,13.4,1505.2,331.6,-0.8,1.8,2470.822,13.28,0.049,125.9
2022-02-16T09:31:03,42.805,6.029,0.066,-0.023,-0.009,103.0,103.0,102.0,13.3,1505.2,327.7,-0.8,1.8,2470.848,13.28,0.069,109.2
2022-02-16T09:34:03,42.805,6.029,0.046,-0.015,-0.003,104.0,103.0,102.0,13.4,1505.2,326.7,-0.8,1.9,2470.893,13.28,0.048,108.1
2022-02-16T09:37:03,42.805,6.029,0.053,-0.027,-0.04,104.0,105.0,102.0,13.4,1505.2,328.9,-0.7,1.9,2470.82,13.28,0.059,117.0
2022-02-16T09:40:03,42.805,6.029,0.057,-0.004,0.013,104.0,103.0,101.0,13.4,1505.2,326.3,-0.8,1.8,2470.813,13.28,0.057,94.0
2022-02-16T09:43:03,42.805,6.029,0.043,-0.018,0.01,103.0,103.0,101.0,13.4,1505.2,329.0,-0.7,1.8,2470.799,13.28,0.046,112.7
2022-02-16T09:46:03,42.805,6.029,0.046,-0.023,-0.014,104.0,104.0,102.0,13.4,1505.2,324.1,-0.7,1.8,2470.777,13.28,0.051,116.6
2022-02-16T09:49:03,42.805,6.029,0.042,-0.008,-0.007,103.0,105.0,101.0,13.4,1505.2,325.2,-0.8,1.8,2470.799,13.28,0.042,100.8
2022-02-16T09:52:03,42.805,6.029,0.054,-0.015,-0.009,104.0,103.0,102.0,13.4,1505.2,329.0,-0.7,1.8,2470.804,13.28,0.056,105.5
2022-02-16T09:55:03,42.805,6.029,0.059,-0.014,-0.03,105.0,104.0,102.0,13.4,1505.2,328.9,-0.7,1.8,2470.851,13.28,0.06,103.3
2022-02-16T09:58:03,42.805,6.029,0.037,-0.021,-0.022,105.0,105.0,103.0,13.3,1505.2,329.2,-0.8,1.8,2470.855,13.28,0.042,119.6